Theta_e
285 286 287 288 288 288 286 285 285 285 285 286 286 286 287 287 285 287 288 285 285 284
282 282 283 284 284 284 284 283 282 282 281 282 282 282 282 282 282 282 281 280 281 280
279 280 280 281 281 281 281 281 281 280 280 279 280 280 280 279 278 278 279 279 279 279
278 278 278 278 278 279 280 280 279 279 279 279 279 279 279 277 278 278 277 278 277 277
277 277 276 276 277 278 277 278 278 278 278 278 278 278 277 276 276 276 275 276 276 276
277 276 276 276 276 276 276 276 277 277 276 276 276 276 277 276 275 275 275 275 275 275
276 277 277 277 277 276 276 276 275 276 276 276 276 276 276 276 276 276 276 276 276 276
277 277 277 277 277 277 277 277 277 277 277 277 277 276 276 276 275 275 274 275 276 276
277 277 277 277 277 277 277 277 278 277 277 277 278 280 279 277 276 276 275 274 274 274
277 277 277 277 277 276 276 277 276 276 276 276 277 278 278 277 275 275 274 274 274 274
276 276 276 276 276 276 276 276 276 276 276 276 276 277 276 275 273 273 273 274 274 274
276 275 275 275 275 276 276 276 276 277 276 275 275 277 276 274 273 272 271 272 273 274
275 275 275 275 275 276 276 275 276 276 277 277 276 277 277 275 274 272 272 272 272 274
275 274 275 275 275 275 275 275 274 274 274 275 277 277 278 277 274 274 273 272 272 272
Wind_Speed
6 3 4 5 4 3 3 4 6 6 7 9 10 9 8 7 7 7 7 9 9 6
7 6 5 6 6 5 5 5 7 7 8 11 12 11 12 9 11 9 9 11 9 8
7 7 6 7 8 7 7 7 7 8 11 12 13 11 12 12 12 11 9 10 11 10
8 9 8 8 7 8 8 8 9 10 11 12 13 13 15 15 16 13 12 14 14 13
9 9 9 9 9 9 11 11 12 12 13 14 14 13 14 17 11 15 14 13 11 14
9 10 10 10 10 11 12 14 14 14 15 15 15 15 15 14 16 16 14 14 7 15
10 10 10 11 12 13 13 14 15 14 14 14 13 14 14 16 14 13 12 12 16 14
10 10 11 12 12 13 14 14 13 14 14 13 13 10 12 15 12 12 10 13 16 12
11 11 13 13 12 13 14 13 13 13 12 13 10 20 19 13 10 10 10 11 10 11
9 11 11 10 11 12 11 12 12 11 11 12 12 18 17 16 9 9 9 10 10 10
9 9 9 9 9 9 9 10 9 10 10 11 10 15 15 16 10 9 10 10 10 9
7 8 7 7 8 7 7 8 8 7 9 10 9 11 10 9 7 9 9 9 8 6
6 6 6 6 7 7 7 8 7 9 8 8 8 11 10 8 6 6 4 5 5 7
5 5 5 6 6 5 6 7 6 6 5 5 4 7 10 9 5 4 3 3 2 2
Wind_Direction
355 353 344 10 34 46 48 39 35 44 51 60 56 54 53 61 51 85 61 62 73 72
22 26 24 34 39 37 57 66 60 55 57 57 57 64 61 64 58 59 63 68 59 65
40 43 49 50 61 64 58 62 66 69 70 68 68 65 74 66 64 66 43 62 68 61
49 49 49 55 54 53 64 68 71 73 78 79 79 69 76 69 74 75 65 63 59 56
50 52 55 54 52 53 59 59 63 65 67 69 66 69 75 71 72 81 57 70 56 51
56 60 59 58 60 61 64 61 61 65 66 68 72 73 73 78 69 60 65 66 56 70
55 58 61 64 64 66 68 68 64 62 67 67 73 74 75 73 70 76 72 78 69 59
57 58 62 63 63 66 65 66 67 69 67 69 67 65 74 75 77 75 75 69 70 72
59 60 60 62 65 69 68 66 69 69 71 74 76 81 80 79 77 79 72 77 75 67
66 66 66 73 72 70 75 76 68 69 73 74 75 80 84 87 84 76 70 66 71 72
67 68 65 63 67 65 67 70 75 71 71 74 73 76 77 78 76 77 74 72 69 72
71 80 81 79 79 74 78 75 72 72 77 80 79 79 85 93 92 82 73 66 51 53
71 80 82 71 69 69 73 80 78 73 60 74 73 66 63 68 74 84 98 99 86 55
92 84 85 82 80 87 93 96 94 96 84 58 53 85 69 60 65 61 63 55 45 35